[[{"header":{"parameterUnit":"m.s-1","parameterCategory":1,"la1":30.2991,"la2":30.254,"lo1":-89.0895,"lo2":-89.0444,"dx":0.0017,"dy":0.0017,"nx":28,"ny":28,"refTime":"2022-11-30T15:00:00:Z","depth":0,"parameterNumber":2,"parameterNumberName":"U-component_of_WINDS"},"data":[0,0,0,0,0,0,0,0,0,0,0,0,0,0,0,0,0,0,0,0,0,0,0,0,0,0,0,0,0,0,0,0,0,0,0,0,0,0,0,0,0,0,0,0,0,0,0,0,0,0,0,0,0,0,0,0,0,0,-4.4648,-4.465,0,-4.483,-4.4832,-4.4834,-4.4764,-4.476,-4.4755,-4.4751,-4.4943,-4.4952,-4.4961,0,0,0,0,0,0,0,0,0,0,0,0,0,-4.4244,-4.4252,-4.4648,-4.465,-4.4652,-4.483,-4.4832,-4.4835,-4.4765,-4.476,-4.4754,-4.475,-4.494,-4.4951,-4.4961,0,0,0,0,0,0,0,0,0,0,0,0,0,-4.4422,-4.4254,-4.4647,-4.4639,-4.464,-4.4829,-4.4832,-4.4835,-4.4766,-4.4759,-4.4753,-4.4747,-4.4936,-4.495,-4.4963,-4.5173,0,0,-4.5004,-4.501,0,0,0,0,0,0,0,0,-4.4412,-4.4437,-4.4638,-4.464,-4.4641,-4.4768,-4.476,-4.4949,-4.4767,-4.4718,-4.4751,-4.4744,-4.489,-4.4907,-4.4955,-4.5182,-4.519,-4.5005,-4.5014,-4.502,-4.5023,0,0,0,0,0,0,0,-4.44,-4.4429,-4.472,-4.4641,-4.4643,-4.4627,-4.4646,-4.4795,-4.4838,-4.4722,-4.4717,-4.4739,-4.489,-4.4942,-4.4959,-4.5193,-4.5005,-4.5017,-4.5026,-4.5031,-4.5602,-4.5609,0,0,0,0,0,0,-4.4387,-4.4419,-4.4714,-4.4725,-4.4509,-4.464,-4.466,-4.4734,-4.4836,-4.4845,-4.4745,-4.4735,-4.4922,-4.4943,-4.4966,-4.5218,-4.5019,-4.5032,-4.504,-4.5595,-4.5604,-4.5611,0,0,0,0,0,0,-4.4378,-4.4413,-4.4707,-4.4571,-4.4607,-4.4653,-4.4736,-4.474,-4.4793,-4.4853,-4.486,-4.479,-4.4918,-4.4947,-4.5122,-4.5223,-4.5038,-4.5051,-4.5587,-4.5598,-4.5607,-4.5724,0,0,0,0,0,0,-4.4367,-4.4411,-4.449,-4.4573,-4.4615,-4.4859,-4.4743,-4.4749,-4.4816,-4.4805,-4.4898,-4.4907,-4.4915,-4.5102,-4.5135,-4.5239,-4.5061,-4.5578,-4.5592,-4.5604,-4.5712,-4.5738,-4.576,0,0,0,0,0,-4.4353,-4.4517,-4.4494,-4.453,-4.4714,-4.4865,-4.4888,-4.4893,-4.4824,-4.4905,-4.4944,-4.4904,-4.5207,-4.512,-4.5157,-4.5267,-4.5571,-4.5588,-4.5603,-4.5701,-4.5732,-4.5759,0,0,0,0,0,0,-4.4446,-4.4528,-4.4504,-4.4699,-4.4775,-4.4852,-4.4954,-4.4927,-4.5026,-4.5012,-4.5016,-4.5037,-4.5218,-4.526,-4.5162,-4.5476,-4.5379,-4.5403,-4.5441,-4.5471,-4.5495,-4.548,-4.5072,0,0,0,0,0,-4.4489,-4.4602,-4.4668,-4.4835,-4.4874,-4.4908,-4.4974,-4.4971,-4.5051,-4.5083,-4.5134,-4.5214,-4.5328,-4.5402,-4.551,-4.5718,-4.5737,-4.5812,-4.5836,-4.5855,-4.5875,-4.5988,-4.6022,-4.5663,-4.5663,-4.5663,0,0,-4.4579,-4.4638,-4.471,-4.4855,-4.4914,-4.5032,-4.4936,-4.5065,-4.5154,-4.5103,-4.527,-4.5312,-4.5402,-4.5594,-4.5681,-4.5635,-4.5979,-4.5875,-4.5891,-4.59,-4.6008,-4.6042,-4.6072,-4.5674,-4.5672,-4.567,0,0,-4.4804,-4.486,-4.5004,-4.5065,-4.5155,-4.5176,-4.5211,-4.5293,-4.5317,-4.5486,-4.545,-4.5556,-4.5752,-4.5817,-4.5876,-4.6127,-4.6094,-4.6162,-4.6288,-4.6398,-4.6426,-4.6451,-4.6539,-4.6571,-4.6182,-4.6183,-4.6183,0,-4.4905,-4.5081,-4.5083,-4.5215,-4.528,-4.5239,-4.5386,-4.5445,-4.5566,-4.5613,-4.5559,-4.5803,-4.586,-4.6067,-4.6128,-4.6178,-4.6218,-4.615,-4.6421,-4.6447,-4.647,-4.6554,-4.6588,-4.619,-4.6189,-4.6189,-4.6188,0,-4.5201,-4.5324,-4.543,-4.5546,-4.5623,-4.5763,-4.5787,-4.5865,-4.5857,-4.5884,-4.6057,-4.6125,-4.6245,-4.6294,-4.6288,-4.6501,-4.6469,-4.6419,-4.6322,-4.6512,-4.6591,-4.6623,-4.6201,-4.6198,-4.6196,-4.6194,0,0,-4.5488,-4.5603,-4.5642,-4.5693,-4.579,-4.5886,-4.6024,-4.614,-4.6207,-4.6293,-4.6409,-4.6576,-4.6529,-4.6596,-4.6597,-4.6694,-4.6888,-4.6632,-4.6634,-4.6676,-4.7126,-4.7161,-4.7199,-4.6867,-4.6873,-4.6878,-4.7118,0,-4.5719,-4.5958,-4.5964,-4.6185,-4.6298,-4.6262,-4.6382,-4.6455,-4.6485,-4.6587,-4.6622,-4.6739,-4.667,-4.671,-4.6804,-4.6844,-4.6978,-4.6827,-4.6975,-4.6981,-4.6951,-4.724,-4.7278,-4.7501,-4.7149,-4.7154,-4.7158,0,-4.6019,-4.6113,-4.6344,-4.6424,-4.6472,-4.658,-4.6686,-4.6785,-4.6867,-4.6883,-4.6958,-4.6944,-4.7087,-4.6987,-4.7183,-4.7081,-4.7142,-4.7172,-4.718,-4.7193,-4.7079,-4.7259,-4.7572,-4.7604,-4.7207,-4.7203,-4.72,0,-4.6203,-4.6387,-4.6549,-4.6595,-4.6693,-4.6769,-4.6814,-4.689,-4.696,-4.7055,-4.71,-4.7211,-4.7272,-4.7358,-4.7376,-4.7302,-4.7573,-4.7474,-4.759,-4.7589,-4.7646,-4.7642,-4.7972,-4.769,-4.769,-4.7689,-4.7688,0,-4.6459,-4.6602,-4.6633,-4.6732,-4.6891,-4.6898,-4.7056,-4.7095,-4.7164,-4.7271,-4.7248,-4.7349,-4.7367,-4.7473,-4.7488,-4.7648,-4.7677,-4.7693,-4.7695,-4.7694,-4.7692,-4.7733,-4.7717,-4.7698,-4.7696,-4.7694,-4.7693,0,-4.669,-4.6717,-4.689,-4.6969,-4.6992,-4.7106,-4.7173,-4.7269,-4.7297,-4.7433,-4.7466,-4.7511,-4.7634,-4.7661,-4.7809,-4.7819,-4.8008,-4.7996,-4.7979,-4.7978,-4.8091,-4.8079,-4.8456,-4.8505,-4.8194,-4.8197,-4.8199,0,-4.685,-4.6959,-4.7049,-4.7118,-4.7166,-4.7278,-4.7349,-4.7361,-4.7436,-4.7539,-4.7623,-4.7743,-4.784,-4.804,-4.8087,-4.82,-4.8189,-4.8314,-4.8205,-4.8201,-4.8188,-4.818,-4.8191,-4.8333,-4.8337,-4.8339,-4.8341,0,-4.7131,-4.7139,-4.7241,-4.7348,-4.7432,-4.7518,-4.7599,-4.7658,-4.7681,-4.7767,-4.7892,-4.7967,-4.8117,-4.8238,-4.8351,-4.8398,-4.8375,-4.8376,-4.8408,-4.8406,-4.8391,-4.8399,-4.8033,-4.8366,-4.8364,-4.8362,-4.8361,-4.836,-4.733,-4.7425,-4.7502,-4.7617,-4.7679,-4.7756,-4.7849,-4.7889,-4.7993,-4.8114,-4.8117,-4.8253,-4.8335,-4.8484,-4.8539,-4.8647,-4.8608,-4.8655,-4.8667,-4.8677,-4.8687,-4.8376,-4.8668,-4.8667,-4.8667,-4.8666,-4.8666,0,-4.7608,-4.7657,-4.7762,-4.7875,-4.7966,-4.7935,-4.8024,-4.8101,-4.8221,-4.8299,-4.8394,-4.8539,-4.8656,-4.8712,-4.8828,-4.8904,-4.8896,-4.8934,-4.8927,-4.8938,-4.8716,-4.8675,-4.8938,-4.8938,-4.8938,-4.8938,-4.8938,-4.8938,-4.7763,-4.792,-4.7938,-4.8127,-4.8175,-4.8307,-4.836,-4.8431,-4.8493,-4.8654,-4.8751,-4.8786,-4.8856,-4.8977,-4.9083,-4.9097,-4.914,-4.9183,-4.9191,-4.8982,-4.8954,-4.8927,-4.8889,-4.9192,-4.9193,-4.9404,-4.9406,-4.9407]},{"header":{"parameterUnit":"m.s-1","parameterCategory":1,"la1":30.2991,"la2":30.254,"lo1":-89.0895,"lo2":-89.0444,"dx":0.0017,"dy":0.0017,"nx":28,"ny":28,"refTime":"2022-11-30T15:00:00:Z","depth":0,"parameterNumber":3,"parameterNumberName":"V-component_of_WINDS"},"data":[0,0,0,0,0,0,0,0,0,0,0,0,0,0,0,0,0,0,0,0,0,0,0,0,0,0,0,0,0,0,0,0,0,0,0,0,0,0,0,0,0,0,0,0,0,0,0,0,0,0,0,0,0,0,0,0,0,0,-0.6219,-0.6217,0,-0.6019,-0.6017,-0.6015,-0.5959,-0.596,-0.5962,-0.5963,-0.575,-0.5744,-0.5737,0,0,0,0,0,0,0,0,0,0,0,0,0,-0.6541,-0.6536,-0.6219,-0.6217,-0.6214,-0.602,-0.6017,-0.6014,-0.5959,-0.5961,-0.5962,-0.5963,-0.5753,-0.5745,-0.5737,0,0,0,0,0,0,0,0,0,0,0,0,0,-0.6377,-0.6534,-0.622,-0.6164,-0.6157,-0.602,-0.6017,-0.6013,-0.5959,-0.5961,-0.5962,-0.5964,-0.5755,-0.5745,-0.5735,-0.5639,0,0,-0.5705,-0.57,0,0,0,0,0,0,0,0,-0.6387,-0.6365,-0.6174,-0.6167,-0.6159,-0.6016,-0.6053,-0.5887,-0.5958,-0.6034,-0.5963,-0.5965,-0.5837,-0.582,-0.5779,-0.5629,-0.5619,-0.5704,-0.5698,-0.5693,-0.569,0,0,0,0,0,0,0,-0.6398,-0.6374,-0.614,-0.6171,-0.6162,-0.6144,-0.6123,-0.6021,-0.5928,-0.6027,-0.6023,-0.6,-0.5833,-0.5789,-0.5773,-0.5616,-0.5704,-0.5695,-0.5689,-0.5685,-0.5368,-0.5366,0,0,0,0,0,0,-0.642,-0.6384,-0.6146,-0.6134,-0.628,-0.6137,-0.6113,-0.606,-0.5929,-0.5911,-0.5999,-0.5998,-0.5805,-0.5785,-0.5766,-0.5638,-0.5693,-0.5684,-0.5678,-0.537,-0.5368,-0.5365,0,0,0,0,0,0,-0.6428,-0.64,-0.6154,-0.6257,-0.6225,-0.613,-0.6071,-0.6055,-0.6011,-0.5908,-0.589,-0.5972,-0.5806,-0.578,-0.5669,-0.563,-0.5679,-0.567,-0.5373,-0.537,-0.5366,-0.5386,0,0,0,0,0,0,-0.6437,-0.6403,-0.6368,-0.6257,-0.622,-0.6065,-0.6068,-0.605,-0.5995,-0.5992,-0.5877,-0.5859,-0.5805,-0.5685,-0.5659,-0.5617,-0.5662,-0.5376,-0.5372,-0.5367,-0.5389,-0.5384,-0.538,0,0,0,0,0,-0.6449,-0.6382,-0.6367,-0.6338,-0.6175,-0.6063,-0.6041,-0.5982,-0.5992,-0.5954,-0.5886,-0.5863,-0.5639,-0.5674,-0.5645,-0.5599,-0.5378,-0.5373,-0.5368,-0.539,-0.5385,-0.538,0,0,0,0,0,0,-0.6489,-0.6366,-0.6348,-0.6244,-0.6165,-0.6054,-0.6005,-0.5979,-0.5893,-0.5894,-0.5822,-0.5796,-0.5689,-0.5633,-0.5674,-0.5494,-0.5508,-0.5496,-0.5535,-0.5528,-0.5524,-0.5539,-0.5654,0,0,0,0,0,-0.6487,-0.6409,-0.6305,-0.6222,-0.6184,-0.6101,-0.605,-0.6011,-0.5925,-0.589,-0.5815,-0.5729,-0.5639,-0.5581,-0.5493,-0.538,-0.5351,-0.5334,-0.533,-0.5326,-0.5317,-0.5246,-0.5235,-0.5348,-0.5348,-0.5348,0,0,-0.6479,-0.6402,-0.6358,-0.6228,-0.6162,-0.6079,-0.6073,-0.5988,-0.5923,-0.5876,-0.5767,-0.5708,-0.5607,-0.5494,-0.544,-0.5444,-0.5279,-0.532,-0.5318,-0.5309,-0.5239,-0.5229,-0.522,-0.5344,-0.5345,-0.5345,0,0,-0.6423,-0.636,-0.6281,-0.6214,-0.6114,-0.6059,-0.604,-0.5932,-0.5891,-0.5781,-0.5742,-0.5663,-0.5511,-0.5438,-0.5382,-0.5292,-0.5265,-0.5265,-0.5241,-0.5173,-0.5164,-0.5156,-0.5118,-0.5106,-0.5256,-0.5256,-0.5256,0,-0.6426,-0.6303,-0.6244,-0.6158,-0.6099,-0.6054,-0.597,-0.5908,-0.5783,-0.5741,-0.5748,-0.5552,-0.5481,-0.5347,-0.5324,-0.5282,-0.5253,-0.5277,-0.5171,-0.5162,-0.5153,-0.5116,-0.5103,-0.5256,-0.5256,-0.5256,-0.5256,0,-0.6308,-0.6223,-0.6171,-0.6053,-0.5988,-0.5905,-0.5828,-0.5769,-0.5734,-0.5676,-0.556,-0.5473,-0.5363,-0.5329,-0.5295,-0.5187,-0.5192,-0.5186,-0.5197,-0.5144,-0.5107,-0.5093,-0.5256,-0.5256,-0.5256,-0.5256,0,0,-0.6274,-0.6121,-0.6102,-0.6045,-0.5929,-0.586,-0.5771,-0.5665,-0.5613,-0.5527,-0.5447,-0.5316,-0.5308,-0.5243,-0.5199,-0.5141,-0.5067,-0.514,-0.5136,-0.5125,-0.4937,-0.494,-0.4925,-0.505,-0.5047,-0.5044,-0.4943,0,-0.62,-0.6043,-0.5984,-0.5854,-0.577,-0.5723,-0.5644,-0.5562,-0.5504,-0.5422,-0.5357,-0.5263,-0.5262,-0.5222,-0.5162,-0.5089,-0.5028,-0.5096,-0.4969,-0.4965,-0.4993,-0.4907,-0.4911,-0.4821,-0.493,-0.4927,-0.4926,0,-0.6094,-0.6007,-0.5868,-0.5756,-0.5719,-0.5651,-0.5545,-0.5469,-0.5371,-0.5332,-0.5258,-0.5217,-0.5116,-0.5135,-0.4992,-0.5039,-0.4983,-0.4939,-0.4934,-0.4917,-0.494,-0.4884,-0.4791,-0.4776,-0.4904,-0.4906,-0.4907,0,-0.6077,-0.5925,-0.5821,-0.5774,-0.5642,-0.5594,-0.5536,-0.5441,-0.5378,-0.5285,-0.5243,-0.5139,-0.508,-0.4998,-0.4927,-0.4949,-0.4788,-0.4803,-0.4748,-0.475,-0.4715,-0.4718,-0.4608,-0.4686,-0.4686,-0.4686,-0.4686,0,-0.5999,-0.5915,-0.5811,-0.5746,-0.5648,-0.5579,-0.5482,-0.542,-0.5335,-0.5253,-0.5206,-0.513,-0.5043,-0.4954,-0.4898,-0.4783,-0.4759,-0.4721,-0.4706,-0.4723,-0.4727,-0.4683,-0.4686,-0.4682,-0.4683,-0.4684,-0.4684,0,-0.5963,-0.5891,-0.5773,-0.5657,-0.5626,-0.5558,-0.5456,-0.5389,-0.5328,-0.5225,-0.5197,-0.51,-0.4992,-0.4913,-0.4775,-0.4736,-0.4612,-0.46,-0.4646,-0.4637,-0.4586,-0.459,-0.4441,-0.4415,-0.4514,-0.4514,-0.4513,0,-0.5917,-0.5851,-0.5727,-0.567,-0.5613,-0.5522,-0.5458,-0.5385,-0.5319,-0.5199,-0.5145,-0.5034,-0.4941,-0.477,-0.4684,-0.4575,-0.4557,-0.4512,-0.454,-0.4557,-0.455,-0.4553,-0.4543,-0.4507,-0.4506,-0.4506,-0.4505,0,-0.584,-0.5806,-0.5718,-0.5614,-0.5539,-0.5453,-0.5367,-0.5322,-0.5232,-0.5159,-0.5049,-0.4977,-0.4833,-0.4721,-0.4603,-0.4539,-0.4504,-0.4497,-0.4478,-0.4493,-0.452,-0.4499,-0.463,-0.4501,-0.4501,-0.4501,-0.4502,-0.4502,-0.5794,-0.5731,-0.5633,-0.5533,-0.546,-0.5379,-0.5308,-0.5237,-0.5145,-0.5023,-0.4985,-0.4869,-0.4765,-0.4604,-0.4537,-0.4442,-0.4443,-0.4417,-0.4409,-0.4402,-0.44,-0.4538,-0.442,-0.442,-0.442,-0.442,-0.442,0,-0.5711,-0.5645,-0.5554,-0.5434,-0.5353,-0.5331,-0.5232,-0.5165,-0.5064,-0.4973,-0.4882,-0.4751,-0.464,-0.4545,-0.4429,-0.437,-0.4351,-0.4342,-0.4343,-0.4327,-0.4409,-0.4435,-0.4359,-0.4359,-0.4359,-0.4359,-0.4359,-0.4359,-0.5659,-0.5548,-0.5502,-0.5352,-0.5284,-0.5172,-0.5116,-0.5039,-0.4964,-0.4821,-0.473,-0.4669,-0.4573,-0.4449,-0.4344,-0.4318,-0.4275,-0.4269,-0.4239,-0.4316,-0.4323,-0.433,-0.4353,-0.4261,-0.4261,-0.4164,-0.4164,-0.4163]}]]